When you browse on this site, cookies collect data to enhance your experience and personalize the content and advertising you see.
Visit our Privacy Policy to learn more. By continuing to use the site, you agree to this use of cookies and data.
  • In Austria
  • List of Countries
  • For 7 days
  • Water Temperature
  • Satellite Maps
  • Weather Map
  • News
  • Weather Widgets
  • user-avatar
    Login

    Hourly Weather Rousse

    Today, 22 July, Monday

    Time Temperature Precipitation Wind Pressure Humidity
    00:00 +24°C° 0 mm 1 mps 751 mmHg 52%
    01:00 +23°C° 0 mm 1 mps 751 mmHg 54%
    02:00 +23°C° 0 mm 1 mps 751 mmHg 56%
    03:00 +23°C° 0 mm 1 mps 751 mmHg 57%
    04:00 +22°C° 0 mm 1 mps 750 mmHg 59%
    05:00 +22°C° 0 mm 1 mps 750 mmHg 61%
    06:00 +24°C° 0 mm 1 mps 750 mmHg 56%
    07:00 +26°C° 0 mm 1 mps 750 mmHg 51%
    08:00 +28°C° 0 mm 2 mps 751 mmHg 46%
    09:00 +30°C° 0 mm 1 mps 751 mmHg 41%
    10:00 +32°C° 0 mm 1 mps 751 mmHg 36%
    11:00 +34°C° 0 mm 1 mps 750 mmHg 31%
    12:00 +35°C° 0 mm 2 mps 750 mmHg 29%
    13:00 +36°C° 0 mm 2 mps 750 mmHg 28%
    14:00 +36°C° 0 mm 2 mps 749 mmHg 27%
    15:00 +36°C° 0 mm 2 mps 749 mmHg 27%
    16:00 +36°C° 0 mm 2 mps 749 mmHg 28%
    17:00 +36°C° 0 mm 2 mps 749 mmHg 29%
    18:00 +34°C° 0 mm 2 mps 749 mmHg 34%
    19:00 +31°C° 0 mm 2 mps 748 mmHg 39%
    20:00 +29°C° 0 mm 2 mps 748 mmHg 45%
    21:00 +27°C° 0.3 mm 2 mps 749 mmHg 55%
    22:00 +25°C° 0.3 mm 2 mps 749 mmHg 66%
    23:00 +22°C° 0.3 mm 3 mps 749 mmHg 76%

    Tomorrow, 23 July, Tuesday

    Time Temperature Precipitation Wind Pressure Humidity
    00:00 +23°C° 0.2 mm 2 mps 749 mmHg 80%
    01:00 +21°C° 0.2 mm 2 mps 748 mmHg 83%
    02:00 +20°C° 0.2 mm 2 mps 748 mmHg 86%
    03:00 +21°C° 0.8 mm 1 mps 748 mmHg 88%
    04:00 +21°C° 0.8 mm 1 mps 748 mmHg 89%
    05:00 +20°C° 0.8 mm 1 mps 748 mmHg 91%
    06:00 +21°C° 0.3 mm 1 mps 748 mmHg 86%
    07:00 +23°C° 0.3 mm 1 mps 748 mmHg 81%
    08:00 +24°C° 0.3 mm 2 mps 748 mmHg 75%
    09:00 +25°C° 0 mm 2 mps 748 mmHg 71%
    10:00 +26°C° 0 mm 3 mps 748 mmHg 66%
    11:00 +27°C° 0 mm 4 mps 748 mmHg 61%
    12:00 +28°C° 0.5 mm 4 mps 748 mmHg 58%
    13:00 +28°C° 0.5 mm 4 mps 747 mmHg 55%
    14:00 +29°C° 0.5 mm 5 mps 747 mmHg 53%
    15:00 +28°C° 0.3 mm 4 mps 747 mmHg 55%
    16:00 +27°C° 0.3 mm 3 mps 747 mmHg 58%
    17:00 +25°C° 0.3 mm 3 mps 747 mmHg 61%
    18:00 +23°C° 0.2 mm 4 mps 747 mmHg 63%
    19:00 +22°C° 0.2 mm 5 mps 747 mmHg 64%
    20:00 +21°C° 0.2 mm 6 mps 747 mmHg 66%
    21:00 +20°C° 0.5 mm 4 mps 747 mmHg 72%
    22:00 +20°C° 0.5 mm 2 mps 748 mmHg 78%
    23:00 +18°C° 0.5 mm 0 mps 748 mmHg 83%

    Day after tomorrow, 24 July, Wednesday

    Time Temperature Precipitation Wind Pressure Humidity
    00:00 +19°C° 0 mm 1 mps 748 mmHg 84%
    01:00 +19°C° 0 mm 1 mps 748 mmHg 85%
    02:00 +19°C° 0 mm 1 mps 748 mmHg 86%
    03:00 +18°C° 0 mm 1 mps 748 mmHg 88%
    04:00 +18°C° 0 mm 1 mps 748 mmHg 90%
    05:00 +16°C° 0 mm 1 mps 748 mmHg 93%
    06:00 +19°C° 0 mm 1 mps 749 mmHg 85%
    07:00 +20°C° 0 mm 2 mps 749 mmHg 77%
    08:00 +21°C° 0 mm 2 mps 749 mmHg 69%
    09:00 +24°C° 0 mm 2 mps 749 mmHg 60%
    10:00 +25°C° 0 mm 2 mps 749 mmHg 52%
    11:00 +27°C° 0 mm 2 mps 749 mmHg 43%
    12:00 +28°C° 0 mm 2 mps 749 mmHg 41%
    13:00 +28°C° 0 mm 2 mps 748 mmHg 40%
    14:00 +29°C° 0 mm 2 mps 748 mmHg 39%
    15:00 +29°C° 0 mm 2 mps 748 mmHg 39%
    16:00 +29°C° 0 mm 2 mps 748 mmHg 40%
    17:00 +29°C° 0 mm 2 mps 747 mmHg 41%
    18:00 +27°C° 0 mm 1 mps 747 mmHg 46%
    19:00 +26°C° 0 mm 1 mps 748 mmHg 52%
    20:00 +24°C° 0 mm 1 mps 748 mmHg 57%
    21:00 +23°C° 0 mm 1 mps 748 mmHg 60%
    22:00 +23°C° 0 mm 1 mps 748 mmHg 62%
    23:00 +22°C° 0 mm 1 mps 749 mmHg 64%

    25 July, Thursday

    Time Temperature Precipitation Wind Pressure Humidity
    00:00 +22°C° 0 mm 1 mps 749 mmHg 65%
    01:00 +21°C° 0 mm 1 mps 748 mmHg 67%
    02:00 +21°C° 0 mm 1 mps 748 mmHg 68%
    03:00 +21°C° 0 mm 1 mps 748 mmHg 69%
    04:00 +21°C° 0 mm 1 mps 748 mmHg 69%
    05:00 +20°C° 0 mm 1 mps 748 mmHg 70%
    06:00 +22°C° 0 mm 1 mps 749 mmHg 66%
    07:00 +24°C° 0 mm 2 mps 749 mmHg 61%
    08:00 +25°C° 0 mm 2 mps 749 mmHg 57%
    09:00 +26°C° 0 mm 2 mps 749 mmHg 54%
    10:00 +27°C° 0 mm 2 mps 749 mmHg 51%
    11:00 +28°C° 0 mm 2 mps 749 mmHg 48%
    12:00 +29°C° 0.1 mm 2 mps 748 mmHg 46%
    13:00 +30°C° 0.1 mm 1 mps 748 mmHg 44%
    14:00 +31°C° 0.1 mm 1 mps 748 mmHg 41%
    15:00 +30°C° 0 mm 1 mps 748 mmHg 42%
    16:00 +30°C° 0 mm 1 mps 747 mmHg 42%
    17:00 +30°C° 0 mm 1 mps 747 mmHg 42%
    18:00 +28°C° 0 mm 1 mps 747 mmHg 48%
    19:00 +27°C° 0 mm 1 mps 747 mmHg 53%
    20:00 +25°C° 0 mm 2 mps 747 mmHg 58%
    21:00 +24°C° 0 mm 2 mps 748 mmHg 63%
    22:00 +22°C° 0 mm 3 mps 748 mmHg 67%
    23:00 +21°C° 0 mm 3 mps 748 mmHg 71%

    26 July, Friday

    Time Temperature Precipitation Wind Pressure Humidity
    00:00 +21°C° 0 mm 3 mps 748 mmHg 70%
    01:00 +21°C° 0 mm 2 mps 748 mmHg 69%
    02:00 +21°C° 0 mm 2 mps 747 mmHg 68%
    03:00 +21°C° 0 mm 2 mps 747 mmHg 68%
    04:00 +20°C° 0 mm 2 mps 747 mmHg 68%
    05:00 +20°C° 0 mm 2 mps 747 mmHg 68%
    06:00 +22°C° 0 mm 3 mps 747 mmHg 63%
    07:00 +24°C° 0 mm 3 mps 747 mmHg 57%
    08:00 +26°C° 0 mm 4 mps 747 mmHg 52%
    09:00 +27°C° 0 mm 3 mps 747 mmHg 49%
    10:00 +28°C° 0 mm 3 mps 747 mmHg 46%
    11:00 +29°C° 0 mm 2 mps 747 mmHg 43%
    12:00 +30°C° 0 mm 3 mps 747 mmHg 41%
    13:00 +31°C° 0 mm 3 mps 747 mmHg 39%
    14:00 +31°C° 0 mm 3 mps 746 mmHg 37%
    15:00 +31°C° 0 mm 3 mps 746 mmHg 38%
    16:00 +31°C° 0 mm 3 mps 746 mmHg 39%
    17:00 +31°C° 0 mm 3 mps 746 mmHg 40%
    18:00 +29°C° 0 mm 3 mps 746 mmHg 45%
    19:00 +27°C° 0 mm 3 mps 746 mmHg 50%
    20:00 +25°C° 0 mm 2 mps 746 mmHg 55%
    21:00 +24°C° 0 mm 3 mps 747 mmHg 57%
    22:00 +24°C° 0 mm 3 mps 747 mmHg 59%
    23:00 +22°C° 0 mm 3 mps 747 mmHg 61%

    27 July, Saturday

    Time Temperature Precipitation Wind Pressure Humidity
    00:00 +21°C° 0 mm 3 mps 747 mmHg 66%
    01:00 +21°C° 0 mm 2 mps 747 mmHg 71%
    02:00 +20°C° 0 mm 2 mps 747 mmHg 77%
    03:00 +20°C° 0 mm 2 mps 747 mmHg 80%
    04:00 +19°C° 0 mm 2 mps 747 mmHg 84%
    05:00 +20°C° 0 mm 1 mps 746 mmHg 88%
    06:00 +21°C° 0 mm 2 mps 746 mmHg 80%
    07:00 +24°C° 0 mm 3 mps 747 mmHg 72%
    08:00 +25°C° 0 mm 3 mps 747 mmHg 64%
    09:00 +27°C° 0 mm 4 mps 747 mmHg 58%
    10:00 +28°C° 0 mm 4 mps 746 mmHg 51%
    11:00 +30°C° 0 mm 4 mps 746 mmHg 45%
    12:00 +30°C° 0 mm 4 mps 746 mmHg 44%
    13:00 +32°C° 0 mm 4 mps 746 mmHg 42%
    14:00 +33°C° 0 mm 4 mps 745 mmHg 40%
    15:00 +33°C° 0 mm 4 mps 745 mmHg 39%
    16:00 +33°C° 0 mm 4 mps 745 mmHg 38%
    17:00 +33°C° 0 mm 4 mps 744 mmHg 38%
    18:00 +30°C° 0 mm 3 mps 744 mmHg 42%
    19:00 +28°C° 0 mm 2 mps 744 mmHg 47%
    20:00 +27°C° 0 mm 2 mps 744 mmHg 52%
    21:00 +26°C° 0 mm 2 mps 745 mmHg 55%
    22:00 +25°C° 0 mm 1 mps 745 mmHg 57%
    23:00 +24°C° 0 mm 1 mps 745 mmHg 60%
    Show more